| time (UTC) | temp F | wind direction | speed MPH | gust MPH | rain 1hr in | rain 24hr in | rain mn in | humidity % | barometer mb |
| 20260904160106 | 87 | 165 | 1.0 | 4.0 | 0.00 | 0.08 | 0.00 | 75 | 1015.8 |
| 20260904154600 | 89 | 165 | 0.0 | 4.0 | 0.00 | 0.08 | 0.00 | 71 | 1015.5 |
| 20260904153127 | 89 | 165 | 0.0 | 4.0 | 0.00 | 0.08 | 0.00 | 73 | 1015.1 |
| 20260904151606 | 88 | 165 | 0.0 | 2.0 | 0.00 | 0.08 | 0.00 | 73 | 1015.3 |
| 20260904150106 | 88 | 0 | 0.0 | 3.0 | 0.00 | 0.08 | 0.00 | 76 | 1015.1 |
| 20260904144603 | 88 | 0 | 0.0 | 3.0 | 0.00 | 0.08 | 0.00 | 77 | 1015.3 |
| 20260904143109 | 87 | 165 | 2.0 | 8.0 | 0.00 | 0.08 | 0.00 | 78 | 1015.1 |
| 20260904141604 | 87 | 0 | 1.0 | 4.0 | 0.00 | 0.08 | 0.00 | 80 | 1015.1 |
| 20260904140107 | 86 | 165 | 0.0 | 4.0 | 0.00 | 0.08 | 0.00 | 82 | 1015.2 |
| 20260904134605 | 85 | 165 | 1.0 | 4.0 | 0.00 | 0.08 | 0.00 | 83 | 1015.2 |
| 20260904133116 | 84 | 165 | 1.0 | 3.0 | 0.00 | 0.08 | 0.00 | 85 | 1015.2 |
| 20260904131609 | 83 | 0 | 0.0 | 2.0 | 0.00 | 0.08 | 0.00 | 88 | 1015.0 |
| 20260904130100 | 82 | 0 | 0.0 | 2.0 | 0.00 | 0.08 | 0.00 | 91 | 1014.9 |
| 20260904124611 | 80 | 0 | 0.0 | 0.0 | 0.00 | 0.08 | 0.00 | 92 | 1014.6 |
| 20260904123116 | 80 | 0 | 0.0 | 0.0 | 0.00 | 0.08 | 0.00 | 93 | 1014.4 |
| 20260904121605 | 80 | 0 | 0.0 | 0.0 | 0.00 | 0.08 | 0.00 | 93 | 1014.3 |
| 20260904120107 | 79 | 0 | 0.0 | 0.0 | 0.00 | 0.08 | 0.00 | 92 | 1014.2 |
| 20260904114604 | 80 | 0 | 0.0 | 0.0 | 0.00 | 0.08 | 0.00 | 92 | 1014.1 |
| 20260904113103 | 80 | 0 | 0.0 | 0.0 | 0.00 | 0.08 | 0.00 | 92 | 1014.2 |
| 20260904111609 | 80 | 0 | 0.0 | 0.0 | 0.00 | 0.08 | 0.00 | 92 | 1014.1 |
| 20260904110110 | 80 | 0 | 0.0 | 0.0 | 0.00 | 0.08 | 0.00 | 92 | 1014.1 |
| 20260904104605 | 80 | 0 | 0.0 | 0.0 | 0.00 | 0.08 | 0.00 | 91 | 1013.9 |
| 20260904103102 | 80 | 0 | 0.0 | 0.0 | 0.00 | 0.08 | 0.00 | 91 | 1013.7 |
| 20260904101612 | 80 | 0 | 0.0 | 0.0 | 0.00 | 0.08 | 0.00 | 91 | 1013.7 |
| 20260904100104 | 80 | 0 | 0.0 | 0.0 | 0.00 | 0.08 | 0.00 | 91 | 1013.6 |
| 20260904094604 | 80 | 0 | 0.0 | 0.0 | 0.00 | 0.08 | 0.00 | 91 | 1013.6 |
| 20260904093119 | 80 | 0 | 0.0 | 0.0 | 0.00 | 0.08 | 0.00 | 91 | 1013.6 |
| 20260904091606 | 80 | 0 | 0.0 | 0.0 | 0.00 | 0.08 | 0.00 | 91 | 1013.5 |
| 20260904090107 | 80 | 0 | 0.0 | 0.0 | 0.00 | 0.08 | 0.00 | 91 | 1013.6 |
| 20260904084603 | 80 | 0 | 0.0 | 0.0 | 0.00 | 0.08 | 0.00 | 91 | 1013.5 |
| 20260904083105 | 80 | 0 | 0.0 | 0.0 | 0.00 | 0.08 | 0.00 | 91 | 1013.7 |
| 20260904081604 | 80 | 0 | 0.0 | 0.0 | 0.00 | 0.08 | 0.00 | 91 | 1013.7 |
| 20260904080104 | 80 | 0 | 0.0 | 0.0 | 0.00 | 0.08 | 0.00 | 91 | 1013.8 |
| 20260904074606 | 80 | 0 | 0.0 | 0.0 | 0.00 | 0.08 | 0.00 | 91 | 1013.7 |
| 20260904073103 | 81 | 0 | 0.0 | 0.0 | 0.00 | 0.08 | 0.00 | 91 | 1013.8 |
| 20260904071605 | 81 | 0 | 0.0 | 0.0 | 0.00 | 0.08 | 0.00 | 90 | 1013.9 |
| 20260904070105 | 81 | 0 | 0.0 | 0.0 | 0.00 | 0.08 | 0.00 | 90 | 1014.0 |
| 20260904064606 | 81 | 0 | 0.0 | 0.0 | 0.00 | 0.08 | 0.00 | 89 | 1014.0 |
| 20260904063103 | 81 | 0 | 0.0 | 1.0 | 0.00 | 0.08 | 0.00 | 89 | 1014.2 |
| 20260904061601 | 81 | 0 | 0.0 | 0.0 | 0.00 | 0.08 | 0.00 | 89 | 1014.0 |
| 20260904060106 | 81 | 0 | 0.0 | 0.0 | 0.00 | 0.08 | 0.00 | 89 | 1014.0 |
| 20260904054602 | 81 | 0 | 0.0 | 4.0 | 0.00 | 0.08 | 0.00 | 89 | 1014.0 |
| 20260904053100 | 81 | 0 | 0.0 | 1.0 | 0.00 | 0.08 | 0.00 | 89 | 1013.9 |
| 20260904051604 | 81 | 0 | 0.0 | 0.0 | 0.00 | 0.08 | 0.00 | 88 | 1014.0 |
| 20260904050107 | 82 | 0 | 0.0 | 1.0 | 0.00 | 0.08 | 0.00 | 88 | 1014.0 |
| 20260904044611 | 82 | 0 | 0.0 | 0.0 | 0.00 | 0.08 | 0.08 | 88 | 1014.0 |
| 20260904043102 | 82 | 0 | 0.0 | 2.0 | 0.00 | 0.08 | 0.08 | 88 | 1013.9 |
| 20260904041603 | 82 | 0 | 0.0 | 2.0 | 0.00 | 0.08 | 0.08 | 88 | 1014.0 |
| 20260904040110 | 81 | 0 | 0.0 | 0.0 | 0.00 | 0.08 | 0.08 | 88 | 1014.0 |
| 20260904034604 | 81 | 0 | 0.0 | 0.0 | 0.00 | 0.08 | 0.08 | 88 | 1014.2 |
| 20260904033111 | 81 | 0 | 0.0 | 0.0 | 0.00 | 0.08 | 0.08 | 88 | 1014.2 |
| 20260904031603 | 81 | 0 | 0.0 | 2.0 | 0.00 | 0.08 | 0.08 | 88 | 1014.0 |
| 20260904024616 | 81 | 0 | 0.0 | 2.0 | 0.00 | 0.08 | 0.08 | 89 | 1013.9 |
| 20260904023114 | 81 | 0 | 0.0 | 0.0 | 0.00 | 0.08 | 0.08 | 89 | 1013.8 |
| 20260904021602 | 81 | 0 | 0.0 | 0.0 | 0.00 | 0.08 | 0.08 | 89 | 1013.8 |
| 20260904014602 | 81 | 0 | 0.0 | 3.0 | 0.00 | 0.08 | 0.08 | 89 | 1013.3 |
| 20260904013101 | 80 | 0 | 0.0 | 0.0 | 0.00 | 0.08 | 0.08 | 89 | 1013.3 |
| 20260904011614 | 80 | 0 | 0.0 | 0.0 | 0.00 | 0.08 | 0.08 | 90 | 1013.2 |
| 20260904010112 | 80 | 0 | 0.0 | 0.0 | 0.00 | 0.08 | 0.08 | 90 | 1013.0 |
| 20260904004604 | 80 | 0 | 0.0 | 0.0 | 0.00 | 0.08 | 0.08 | 91 | 1013.0 |
| 20260904003102 | 80 | 0 | 0.0 | 0.0 | 0.00 | 0.08 | 0.08 | 91 | 1013.0 |
| 20260904001604 | 80 | 0 | 0.0 | 0.0 | 0.00 | 0.08 | 0.08 | 91 | 1013.2 |
| 20260904000105 | 80 | 0 | 0.0 | 0.0 | 0.00 | 0.08 | 0.08 | 91 | 1013.2 |
| 20260903234606 | 80 | 0 | 0.0 | 2.0 | 0.00 | 0.08 | 0.08 | 91 | 1013.2 |
| 20260903233102 | 79 | 0 | 0.0 | 0.0 | 0.00 | 0.08 | 0.08 | 91 | 1013.3 |
| 20260903231603 | 79 | 0 | 0.0 | 0.0 | 0.00 | 0.08 | 0.08 | 91 | 1013.4 |
| 20260903230103 | 79 | 0 | 0.0 | 2.0 | 0.00 | 0.08 | 0.08 | 91 | 1013.3 |
| 20260903224602 | 79 | 165 | 1.0 | 3.0 | 0.00 | 0.08 | 0.08 | 91 | 1013.5 |
| 20260903223108 | 79 | 165 | 1.0 | 2.0 | 0.00 | 0.08 | 0.08 | 92 | 1013.4 |
| 20260903221607 | 79 | 165 | 1.0 | 2.0 | 0.00 | 0.08 | 0.08 | 92 | 1013.4 |
| 20260903220123 | 79 | 165 | 0.0 | 3.0 | 0.00 | 0.08 | 0.08 | 93 | 1013.5 |
| 20260903214604 | 79 | 165 | 1.0 | 3.0 | 0.00 | 0.08 | 0.08 | 93 | 1013.8 |
| 20260903213105 | 79 | 165 | 1.0 | 2.0 | 0.02 | 0.08 | 0.08 | 93 | 1014.4 |
| 20260903211604 | 78 | 0 | 0.0 | 0.0 | 0.04 | 0.08 | 0.08 | 93 | 1014.3 |
| 20260903210110 | 78 | 0 | 0.0 | 0.0 | 0.06 | 0.08 | 0.08 | 92 | 1014.4 |
| 20260903204603 | 78 | 0 | 0.0 | 0.0 | 0.06 | 0.08 | 0.08 | 92 | 1014.4 |
| 20260903203133 | 78 | 0 | 0.0 | 1.0 | 0.05 | 0.06 | 0.06 | 90 | 1014.5 |
| 20260903201603 | 78 | 0 | 0.0 | 2.0 | 0.04 | 0.04 | 0.04 | 91 | 1014.7 |
| 20260903194605 | 79 | 165 | 0.0 | 1.0 | 0.02 | 0.02 | 0.02 | 88 | 1014.5 |
| 20260903193108 | 81 | 0 | 0.0 | 2.0 | 0.01 | 0.01 | 0.01 | 83 | 1014.7 |
| 20260903191604 | 80 | 165 | 1.0 | 3.0 | 0.00 | 0.00 | 0.00 | 82 | 1015.4 |
| 20260903190103 | 81 | 165 | 1.0 | 4.0 | 0.00 | 0.00 | 0.00 | 78 | 1014.7 |
| 20260903184602 | 81 | 165 | 3.0 | 6.0 | 0.00 | 0.00 | 0.00 | 79 | 1014.7 |
| 20260903183102 | 84 | 165 | 4.0 | 7.0 | 0.00 | 0.00 | 0.00 | 71 | 1014.8 |
| 20260903181602 | 86 | 165 | 2.0 | 8.0 | 0.00 | 0.00 | 0.00 | 68 | 1014.8 |
| 20260903180106 | 90 | 0 | 0.0 | 0.0 | 0.00 | 0.00 | 0.00 | 67 | 1014.7 |
| 20260903174604 | 92 | 0 | 0.0 | 4.0 | 0.00 | 0.00 | 0.00 | 65 | 1014.8 |
| 20260903173103 | 92 | 166 | 0.0 | 3.0 | 0.00 | 0.00 | 0.00 | 63 | 1014.6 |
| 20260903171614 | 92 | 166 | 1.0 | 5.0 | 0.00 | 0.00 | 0.00 | 65 | 1014.7 |
| 20260903170108 | 90 | 166 | 0.0 | 3.0 | 0.00 | 0.00 | 0.00 | 67 | 1015.0 |
| 20260903164642 | 91 | 166 | 1.0 | 9.0 | 0.00 | 0.00 | 0.00 | 67 | 1015.2 |
| 20260903163106 | 92 | 167 | 1.0 | 5.0 | 0.00 | 0.00 | 0.00 | 66 | 1015.3 |
| 20260903161603 | 91 | 0 | 1.0 | 5.0 | 0.00 | 0.00 | 0.00 | 69 | 1015.2 |